[[{"header":{"parameterUnit":"m.s-1","parameterCategory":1,"la1":30.2991,"la2":30.254,"lo1":-89.0895,"lo2":-89.0444,"dy":0.0017,"dx":0.0017,"nx":28,"ny":28,"refTime":"2024-02-11T03:00:00:Z","depth":0,"parameterNumber":2,"parameterNumberName":"U-component_of_WINDS"},"data":[0,0,0,0,0,0,0,0,0,0,0,0,0,0,0,0,0,0,0,0,0,0,0,0,0,0,0,0,0,0,0,0,0,0,0,0,0,0,0,0,0,0,0,0,0,0,0,0,0,0,0,0,0,0,0,0,0,0,0.403,0.4029,0,0.3963,0.3962,0.3961,0.3891,0.389,0.3889,0.3888,0.382,0.3819,0.3819,0,0,0,0,0,0,0,0,0,0,0,0,0,0.4099,0.4098,0.403,0.4029,0.4028,0.3963,0.3962,0.3961,0.3891,0.389,0.3888,0.3887,0.3821,0.382,0.3818,0,0,0,0,0,0,0,0,0,0,0,0,0,0.4054,0.4098,0.403,0.3985,0.3981,0.3963,0.3962,0.3961,0.3891,0.389,0.3888,0.3887,0.3821,0.382,0.3818,0.384,0,0,0.3814,0.3814,0,0,0,0,0,0,0,0,0.4057,0.4052,0.3993,0.3988,0.3983,0.3933,0.3961,0.392,0.3891,0.3925,0.3888,0.3886,0.3859,0.3855,0.3845,0.3836,0.3833,0.3814,0.3813,0.3813,0.3812,0,0,0,0,0,0,0,0.406,0.4054,0.4003,0.3992,0.3986,0.3969,0.3961,0.3953,0.3901,0.3922,0.3917,0.391,0.3856,0.3847,0.3843,0.3832,0.3814,0.3813,0.3812,0.3812,0.3838,0.384,0,0,0,0,0,0,0.407,0.4057,0.4005,0.4001,0.4017,0.3969,0.396,0.3951,0.3901,0.3892,0.3911,0.3907,0.385,0.3845,0.3841,0.3863,0.3813,0.3812,0.3811,0.3837,0.3839,0.384,0,0,0,0,0,0,0.4072,0.4066,0.4008,0.4028,0.4019,0.3969,0.396,0.395,0.3941,0.3893,0.3883,0.3911,0.3848,0.3842,0.384,0.386,0.3811,0.381,0.3835,0.3837,0.3839,0.3907,0,0,0,0,0,0,0.4074,0.4067,0.4074,0.4029,0.4018,0.4009,0.3961,0.395,0.3938,0.3932,0.389,0.3882,0.3847,0.3843,0.3839,0.3857,0.3809,0.3833,0.3836,0.3839,0.3903,0.3912,0.3919,0,0,0,0,0,0.4077,0.4096,0.4075,0.4069,0.4026,0.401,0.4004,0.3963,0.394,0.3947,0.3917,0.3883,0.3858,0.3843,0.3838,0.3856,0.3832,0.3835,0.3839,0.39,0.391,0.3919,0,0,0,0,0,0,0.4146,0.4089,0.4065,0.407,0.4046,0.3998,0.4006,0.3975,0.3957,0.3952,0.3902,0.3893,0.3898,0.3876,0.3861,0.3874,0.384,0.3843,0.3888,0.3898,0.3905,0.3911,0.3808,0,0,0,0,0,0.4161,0.4153,0.4104,0.4113,0.4102,0.4056,0.4048,0.4018,0.3991,0.398,0.3949,0.3924,0.391,0.3903,0.3887,0.3899,0.389,0.3909,0.3917,0.3924,0.3927,0.3933,0.3941,0.3851,0.3851,0.3851,0,0,0.4194,0.4162,0.416,0.4126,0.4104,0.4096,0.4048,0.4042,0.4036,0.3979,0.3975,0.3952,0.3921,0.3926,0.3927,0.3909,0.395,0.3928,0.3934,0.3933,0.3937,0.3946,0.3953,0.3854,0.3853,0.3853,0,0,0.425,0.4224,0.423,0.4208,0.4174,0.4144,0.4145,0.4102,0.4085,0.408,0.4037,0.403,0.4007,0.3987,0.3974,0.4022,0.3991,0.4019,0.406,0.4066,0.4074,0.408,0.4098,0.4105,0.4022,0.4022,0.4022,0,0.4295,0.4282,0.4237,0.4233,0.422,0.4168,0.4173,0.4154,0.4118,0.411,0.409,0.4061,0.4036,0.4037,0.4048,0.4039,0.404,0.4024,0.4076,0.4082,0.4087,0.4104,0.4111,0.4026,0.4025,0.4025,0.4024,0,0.4339,0.4331,0.4339,0.4305,0.4292,0.4294,0.4249,0.4242,0.4214,0.4186,0.4183,0.4151,0.4129,0.4126,0.4099,0.4123,0.4113,0.4085,0.405,0.41,0.4115,0.4121,0.4031,0.403,0.4028,0.4028,0,0,0.4437,0.4378,0.4382,0.4366,0.4325,0.4318,0.4317,0.4295,0.429,0.4267,0.4265,0.4247,0.4221,0.4207,0.4176,0.4181,0.4223,0.4153,0.4151,0.4168,0.425,0.4272,0.428,0.4202,0.4203,0.4204,0.4253,0,0.4487,0.4482,0.4441,0.4448,0.444,0.439,0.439,0.4365,0.4339,0.4328,0.4299,0.4288,0.4254,0.4245,0.4248,0.4218,0.4239,0.4213,0.4201,0.4201,0.4212,0.4288,0.4311,0.4359,0.4258,0.4259,0.426,0,0.4544,0.4524,0.453,0.449,0.4485,0.4485,0.4462,0.4452,0.4423,0.4404,0.4387,0.4353,0.435,0.4316,0.4312,0.4295,0.4287,0.4272,0.4273,0.4271,0.4235,0.429,0.4373,0.4381,0.4269,0.4268,0.4267,0,0.4616,0.4591,0.4591,0.4579,0.4531,0.4533,0.4513,0.4482,0.4472,0.4452,0.4445,0.4425,0.4414,0.44,0.4361,0.434,0.4362,0.4324,0.4347,0.4348,0.4354,0.4355,0.444,0.4348,0.4348,0.4348,0.4347,0,0.4677,0.4683,0.4623,0.4624,0.4629,0.4583,0.459,0.4565,0.4539,0.4534,0.4489,0.4486,0.4435,0.4426,0.4395,0.4397,0.4392,0.4377,0.4369,0.4382,0.4384,0.4377,0.4373,0.4349,0.4349,0.4349,0.4348,0,0.4759,0.4719,0.4717,0.4672,0.4661,0.4667,0.4629,0.4628,0.4598,0.4593,0.4589,0.4544,0.4531,0.4491,0.4468,0.4448,0.4459,0.4443,0.4469,0.4464,0.4489,0.4488,0.4573,0.4583,0.4484,0.4485,0.4486,0,0.48,0.4804,0.476,0.4753,0.4735,0.4726,0.4715,0.4669,0.466,0.4627,0.4631,0.4614,0.4599,0.4581,0.4546,0.4529,0.4513,0.4544,0.451,0.4523,0.4515,0.4516,0.4516,0.4552,0.4553,0.4554,0.4555,0,0.4879,0.4859,0.4845,0.4825,0.4813,0.4795,0.4774,0.4771,0.472,0.4712,0.4699,0.4687,0.4663,0.4648,0.4625,0.4605,0.4573,0.4566,0.457,0.4584,0.4599,0.4593,0.4491,0.4565,0.4564,0.4563,0.4562,0.4562,0.4942,0.4944,0.4913,0.4899,0.4879,0.486,0.4857,0.4828,0.4816,0.4793,0.4767,0.4757,0.4728,0.4694,0.4677,0.4668,0.465,0.4656,0.4658,0.4661,0.4667,0.46,0.4664,0.4663,0.4663,0.4663,0.4663,0,0.502,0.4997,0.4985,0.4957,0.4947,0.4916,0.4891,0.4885,0.4876,0.4852,0.4838,0.4823,0.4808,0.4772,0.4754,0.4754,0.4739,0.4751,0.4752,0.4748,0.4684,0.4682,0.4764,0.4764,0.4764,0.4764,0.4764,0.4764,0.5058,0.5059,0.5036,0.5027,0.5004,0.4994,0.4982,0.4966,0.4946,0.4931,0.4919,0.4895,0.4867,0.4846,0.4832,0.4821,0.4818,0.4835,0.4821,0.4762,0.4752,0.4743,0.4741,0.4834,0.4834,0.4885,0.4886,0.4886]},{"header":{"parameterUnit":"m.s-1","parameterCategory":1,"la1":30.2991,"la2":30.254,"lo1":-89.0895,"lo2":-89.0444,"dy":0.0017,"dx":0.0017,"nx":28,"ny":28,"refTime":"2024-02-11T03:00:00:Z","depth":0,"parameterNumber":3,"parameterNumberName":"V-component_of_WINDS"},"data":[0,0,0,0,0,0,0,0,0,0,0,0,0,0,0,0,0,0,0,0,0,0,0,0,0,0,0,0,0,0,0,0,0,0,0,0,0,0,0,0,0,0,0,0,0,0,0,0,0,0,0,0,0,0,0,0,0,0,4.2095,4.2096,0,4.2152,4.2153,4.2153,4.2116,4.2115,4.2113,4.2111,4.2169,4.2172,4.2175,0,0,0,0,0,0,0,0,0,0,0,0,0,4.1955,4.1958,4.2095,4.2096,4.2097,4.2152,4.2153,4.2153,4.2117,4.2115,4.2113,4.2111,4.2168,4.2172,4.2175,0,0,0,0,0,0,0,0,0,0,0,0,0,4.2014,4.1958,4.2095,4.2085,4.2085,4.2152,4.2153,4.2154,4.2117,4.2115,4.2112,4.211,4.2167,4.2171,4.2176,4.2256,0,0,4.219,4.2192,0,0,0,0,0,0,0,0,4.2011,4.2019,4.2086,4.2086,4.2085,4.2125,4.2124,4.2188,4.2118,4.2105,4.2111,4.2108,4.2156,4.2162,4.2178,4.2259,4.2261,4.2191,4.2193,4.2195,4.2197,0,0,0,0,0,0,0,4.2007,4.2017,4.2118,4.2087,4.2087,4.2078,4.2083,4.2136,4.2144,4.2106,4.2103,4.211,4.2156,4.2173,4.2179,4.2262,4.219,4.2195,4.2197,4.2199,4.2414,4.2417,0,0,0,0,0,0,4.2003,4.2013,4.2116,4.2119,4.2041,4.2082,4.2088,4.2115,4.2143,4.2145,4.2113,4.2109,4.2167,4.2173,4.2181,4.2279,4.2195,4.22,4.2202,4.2411,4.2415,4.2418,0,0,0,0,0,0,4.2001,4.2013,4.2113,4.2066,4.2078,4.2087,4.2117,4.2117,4.2135,4.2149,4.215,4.2129,4.2165,4.2174,4.2238,4.228,4.2202,4.2206,4.2408,4.2412,4.2416,4.2474,0,0,0,0,0,0,4.1997,4.2012,4.2043,4.2067,4.2081,4.217,4.2119,4.212,4.2143,4.2138,4.2165,4.2167,4.2164,4.2231,4.2243,4.2285,4.221,4.2404,4.241,4.2415,4.2469,4.248,4.249,0,0,0,0,0,4.1992,4.2056,4.2044,4.2057,4.2119,4.2173,4.218,4.2176,4.2147,4.2178,4.2187,4.2166,4.2273,4.2238,4.2251,4.2295,4.2401,4.2408,4.2414,4.2464,4.2478,4.249,0,0,0,0,0,0,4.2036,4.2059,4.2046,4.212,4.2145,4.2166,4.2205,4.219,4.2224,4.2218,4.221,4.2217,4.2284,4.2296,4.2256,4.2376,4.2333,4.2342,4.2366,4.2379,4.239,4.2387,4.2214,0,0,0,0,0,4.2054,4.2096,4.2113,4.2177,4.219,4.2196,4.2219,4.2213,4.2238,4.2249,4.2262,4.2288,4.2327,4.2353,4.239,4.2469,4.2476,4.2506,4.2517,4.2525,4.2534,4.258,4.2594,4.2439,4.2439,4.2439,0,0,4.2092,4.211,4.2137,4.2186,4.2205,4.2249,4.2205,4.2252,4.2285,4.2256,4.2318,4.2329,4.2356,4.2429,4.2462,4.2441,4.2578,4.2534,4.254,4.2545,4.2588,4.2603,4.2616,4.2444,4.2443,4.2442,0,0,4.2185,4.2202,4.2258,4.2278,4.2307,4.231,4.2323,4.2348,4.2354,4.2416,4.2396,4.2435,4.2502,4.2524,4.2544,4.2646,4.2629,4.2658,4.2714,4.2758,4.2771,4.2782,4.2821,4.2835,4.2666,4.2667,4.2667,0,4.2229,4.2295,4.2288,4.2339,4.2362,4.2338,4.2395,4.2414,4.2454,4.2471,4.2446,4.2533,4.2549,4.2628,4.2653,4.2669,4.2685,4.2656,4.2769,4.278,4.279,4.2828,4.2842,4.267,4.267,4.2669,4.2669,0,4.2349,4.2395,4.2436,4.2477,4.2504,4.2558,4.256,4.2588,4.2581,4.2587,4.2652,4.2671,4.2713,4.273,4.2722,4.2809,4.2795,4.277,4.2727,4.2809,4.2844,4.2858,4.2675,4.2674,4.2673,4.2672,0,0,4.2472,4.2508,4.2524,4.2543,4.2574,4.2609,4.2662,4.2703,4.273,4.2757,4.2803,4.2861,4.2839,4.2862,4.2856,4.2894,4.2978,4.2865,4.2866,4.2888,4.3077,4.3098,4.3114,4.2966,4.2968,4.297,4.3076,0,4.2568,4.2662,4.2658,4.2745,4.2789,4.2767,4.2813,4.2837,4.2844,4.2883,4.289,4.2933,4.2899,4.2913,4.295,4.296,4.3016,4.2952,4.301,4.3012,4.3006,4.3132,4.3154,4.3252,4.3089,4.3091,4.3093,0,4.2694,4.2728,4.282,4.2846,4.2864,4.2906,4.2945,4.2981,4.3009,4.3011,4.3038,4.3026,4.3081,4.3035,4.3111,4.3067,4.309,4.3099,4.3103,4.311,4.3059,4.3146,4.3283,4.3299,4.3114,4.3112,4.3111,0,4.2778,4.2846,4.2911,4.2927,4.2959,4.2989,4.3004,4.3028,4.3054,4.3088,4.3105,4.3144,4.3166,4.3197,4.3197,4.3163,4.3275,4.3228,4.328,4.3281,4.3307,4.3306,4.3453,4.3317,4.3317,4.3317,4.3316,0,4.2888,4.2946,4.295,4.299,4.3054,4.3049,4.3113,4.3125,4.3147,4.319,4.3171,4.3212,4.3208,4.3249,4.3248,4.3313,4.3322,4.3327,4.3327,4.3331,4.333,4.3347,4.3342,4.3321,4.332,4.3319,4.3318,0,4.2994,4.2998,4.3068,4.3092,4.31,4.3147,4.3168,4.3206,4.3212,4.3266,4.3279,4.3288,4.3335,4.3338,4.3391,4.3391,4.3471,4.3462,4.3463,4.3462,4.3515,4.3511,4.368,4.3704,4.355,4.3551,4.3553,0,4.3065,4.311,4.3139,4.3167,4.3184,4.3228,4.3255,4.3251,4.328,4.3316,4.335,4.3396,4.3433,4.3509,4.3521,4.3563,4.3556,4.3613,4.3562,4.3565,4.3561,4.3559,4.3565,4.3623,4.3625,4.3626,4.3627,0,4.3192,4.3193,4.3232,4.3274,4.3307,4.3339,4.3368,4.3392,4.3392,4.3425,4.3474,4.3502,4.3558,4.3605,4.3646,4.3661,4.3646,4.3643,4.3658,4.3663,4.3663,4.3667,4.3492,4.364,4.3638,4.3637,4.3637,4.3636,4.3285,4.3325,4.3353,4.3398,4.342,4.3449,4.3487,4.3498,4.3539,4.3585,4.358,4.3635,4.3662,4.3716,4.3734,4.3778,4.3758,4.3779,4.3785,4.3791,4.3798,4.3654,4.3785,4.3784,4.3784,4.3784,4.3783,0,4.3414,4.3431,4.3473,4.3516,4.3552,4.3534,4.3566,4.3598,4.3646,4.3673,4.371,4.3767,4.3813,4.3828,4.3872,4.3904,4.3898,4.3916,4.3915,4.392,4.3811,4.3795,4.392,4.392,4.392,4.392,4.392,4.392,4.3485,4.3552,4.3556,4.3634,4.3651,4.3705,4.3725,4.3752,4.3774,4.3839,4.3877,4.3887,4.391,4.3956,4.3997,4.4001,4.4019,4.4041,4.4042,4.394,4.3927,4.3914,4.3899,4.4044,4.4044,4.4147,4.4148,4.4149]}]]